When you browse on this site, cookies collect data to enhance your experience and personalize the content and advertising you see.
Visit our Privacy Policy to learn more. By continuing to use the site, you agree to this use of cookies and data.
  • In France
  • List of Countries
  • For 7 days
  • Water Temperature
  • Weather Map
  • Weather Widgets
  • user-avatar
    Login

    Hourly Weather Kisumu

    Today, 4 April, Saturday

    Time Temperature Precipitation Wind Pressure Humidity
    00:00 +21°C° 0 mm 2 mps 663 mmHg 84%
    01:00 +21°C° 0 mm 2 mps 663 mmHg 84%
    02:00 +20°C° 0 mm 2 mps 662 mmHg 83%
    03:00 +20°C° 0 mm 2 mps 663 mmHg 83%
    04:00 +20°C° 0 mm 2 mps 663 mmHg 83%
    05:00 +20°C° 0 mm 2 mps 664 mmHg 83%
    06:00 +21°C° 0 mm 2 mps 665 mmHg 79%
    07:00 +24°C° 0 mm 2 mps 665 mmHg 74%
    08:00 +26°C° 0 mm 2 mps 666 mmHg 69%
    09:00 +28°C° 0 mm 2 mps 666 mmHg 62%
    10:00 +29°C° 0 mm 2 mps 666 mmHg 55%
    11:00 +31°C° 0 mm 1 mps 666 mmHg 48%
    12:00 +31°C° 0 mm 2 mps 665 mmHg 47%
    13:00 +32°C° 0 mm 2 mps 664 mmHg 46%
    14:00 +33°C° 0 mm 3 mps 664 mmHg 46%
    15:00 +30°C° 0.1 mm 3 mps 663 mmHg 55%
    16:00 +29°C° 0.1 mm 3 mps 663 mmHg 63%
    17:00 +28°C° 0.1 mm 3 mps 663 mmHg 72%
    18:00 +26°C° 0 mm 2 mps 664 mmHg 76%
    19:00 +24°C° 0 mm 2 mps 664 mmHg 81%
    20:00 +23°C° 0 mm 1 mps 664 mmHg 85%
    21:00 +22°C° 0.1 mm 1 mps 664 mmHg 85%
    22:00 +22°C° 0.1 mm 1 mps 665 mmHg 85%
    23:00 +21°C° 0.1 mm 2 mps 665 mmHg 85%

    Tomorrow, 5 April, Sunday

    Time Temperature Precipitation Wind Pressure Humidity
    00:00 +20°C° 0 mm 2 mps 664 mmHg 84%
    01:00 +20°C° 0 mm 2 mps 664 mmHg 83%
    02:00 +20°C° 0 mm 2 mps 663 mmHg 81%
    03:00 +20°C° 0 mm 2 mps 664 mmHg 81%
    04:00 +19°C° 0 mm 2 mps 664 mmHg 81%
    05:00 +19°C° 0 mm 2 mps 664 mmHg 81%
    06:00 +21°C° 0 mm 2 mps 665 mmHg 76%
    07:00 +24°C° 0 mm 1 mps 666 mmHg 71%
    08:00 +26°C° 0 mm 1 mps 666 mmHg 66%
    09:00 +27°C° 0 mm 1 mps 666 mmHg 61%
    10:00 +29°C° 0 mm 1 mps 666 mmHg 56%
    11:00 +31°C° 0 mm 1 mps 666 mmHg 51%
    12:00 +31°C° 0.1 mm 2 mps 666 mmHg 50%
    13:00 +31°C° 0.1 mm 2 mps 665 mmHg 50%
    14:00 +31°C° 0.1 mm 2 mps 664 mmHg 49%
    15:00 +30°C° 0.3 mm 3 mps 664 mmHg 58%
    16:00 +28°C° 0.3 mm 3 mps 664 mmHg 66%
    17:00 +26°C° 0.3 mm 4 mps 663 mmHg 75%
    18:00 +25°C° 0.2 mm 3 mps 664 mmHg 77%
    19:00 +24°C° 0.2 mm 2 mps 664 mmHg 80%
    20:00 +23°C° 0.2 mm 1 mps 665 mmHg 83%
    21:00 +23°C° 0.1 mm 2 mps 665 mmHg 83%
    22:00 +21°C° 0.1 mm 2 mps 665 mmHg 83%
    23:00 +21°C° 0.1 mm 2 mps 664 mmHg 84%

    Day after tomorrow, 6 April, Monday

    Time Temperature Precipitation Wind Pressure Humidity
    00:00 +20°C° 0 mm 2 mps 664 mmHg 83%
    01:00 +20°C° 0 mm 2 mps 664 mmHg 82%
    02:00 +19°C° 0 mm 2 mps 663 mmHg 81%
    03:00 +19°C° 0 mm 2 mps 664 mmHg 82%
    04:00 +19°C° 0 mm 2 mps 664 mmHg 82%
    05:00 +19°C° 0 mm 2 mps 664 mmHg 83%
    06:00 +20°C° 0 mm 2 mps 665 mmHg 77%
    07:00 +23°C° 0 mm 2 mps 666 mmHg 72%
    08:00 +25°C° 0 mm 2 mps 667 mmHg 66%
    09:00 +27°C° 0 mm 2 mps 666 mmHg 60%
    10:00 +29°C° 0 mm 2 mps 666 mmHg 54%
    11:00 +31°C° 0 mm 2 mps 666 mmHg 48%
    12:00 +31°C° 0 mm 2 mps 665 mmHg 47%
    13:00 +31°C° 0 mm 2 mps 665 mmHg 46%
    14:00 +32°C° 0 mm 2 mps 664 mmHg 44%
    15:00 +30°C° 0.1 mm 3 mps 664 mmHg 54%
    16:00 +29°C° 0.1 mm 3 mps 664 mmHg 63%
    17:00 +27°C° 0.1 mm 3 mps 663 mmHg 72%
    18:00 +26°C° 0.2 mm 2 mps 664 mmHg 76%
    19:00 +24°C° 0.2 mm 2 mps 664 mmHg 81%
    20:00 +23°C° 0.2 mm 1 mps 665 mmHg 85%
    21:00 +22°C° 0 mm 1 mps 665 mmHg 85%
    22:00 +21°C° 0 mm 2 mps 665 mmHg 85%
    23:00 +21°C° 0 mm 2 mps 665 mmHg 85%

    7 April, Tuesday

    Time Temperature Precipitation Wind Pressure Humidity
    00:00 +20°C° 0.1 mm 2 mps 664 mmHg 83%
    01:00 +20°C° 0.1 mm 2 mps 664 mmHg 81%
    02:00 +19°C° 0.1 mm 3 mps 664 mmHg 79%
    03:00 +19°C° 0 mm 2 mps 664 mmHg 78%
    04:00 +20°C° 0 mm 2 mps 664 mmHg 78%
    05:00 +20°C° 0 mm 2 mps 664 mmHg 78%
    06:00 +21°C° 0 mm 2 mps 665 mmHg 73%
    07:00 +24°C° 0 mm 2 mps 665 mmHg 68%
    08:00 +26°C° 0 mm 2 mps 666 mmHg 64%
    09:00 +28°C° 0 mm 2 mps 666 mmHg 58%
    10:00 +30°C° 0 mm 2 mps 666 mmHg 52%
    11:00 +31°C° 0 mm 2 mps 665 mmHg 46%
    12:00 +32°C° 0 mm 2 mps 665 mmHg 45%
    13:00 +32°C° 0 mm 2 mps 664 mmHg 44%
    14:00 +33°C° 0 mm 3 mps 664 mmHg 43%
    15:00 +30°C° 0.3 mm 3 mps 663 mmHg 55%
    16:00 +28°C° 0.3 mm 3 mps 663 mmHg 66%
    17:00 +26°C° 0.3 mm 3 mps 663 mmHg 77%
    18:00 +25°C° 0.6 mm 3 mps 663 mmHg 80%
    19:00 +24°C° 0.6 mm 2 mps 664 mmHg 83%
    20:00 +23°C° 0.6 mm 2 mps 664 mmHg 86%
    21:00 +23°C° 0.1 mm 2 mps 664 mmHg 86%
    22:00 +21°C° 0.1 mm 2 mps 664 mmHg 87%
    23:00 +21°C° 0.1 mm 2 mps 665 mmHg 87%

    8 April, Wednesday

    Time Temperature Precipitation Wind Pressure Humidity
    00:00 +21°C° 0 mm 2 mps 664 mmHg 87%
    01:00 +21°C° 0 mm 2 mps 664 mmHg 86%
    02:00 +21°C° 0 mm 2 mps 664 mmHg 85%
    03:00 +21°C° 0 mm 2 mps 664 mmHg 85%
    04:00 +21°C° 0 mm 2 mps 664 mmHg 84%
    05:00 +21°C° 0 mm 2 mps 664 mmHg 84%
    06:00 +23°C° 0 mm 2 mps 665 mmHg 80%
    07:00 +24°C° 0 mm 2 mps 665 mmHg 77%
    08:00 +25°C° 0 mm 2 mps 666 mmHg 73%
    09:00 +27°C° 0 mm 2 mps 666 mmHg 66%
    10:00 +29°C° 0 mm 2 mps 666 mmHg 59%
    11:00 +31°C° 0 mm 2 mps 665 mmHg 51%
    12:00 +31°C° 0.1 mm 2 mps 665 mmHg 52%
    13:00 +31°C° 0.1 mm 3 mps 664 mmHg 52%
    14:00 +32°C° 0.1 mm 4 mps 663 mmHg 53%
    15:00 +30°C° 0.6 mm 3 mps 663 mmHg 61%
    16:00 +28°C° 0.6 mm 3 mps 663 mmHg 69%
    17:00 +26°C° 0.6 mm 2 mps 663 mmHg 76%
    18:00 +25°C° 0.1 mm 2 mps 663 mmHg 79%
    19:00 +24°C° 0.1 mm 1 mps 663 mmHg 81%
    20:00 +23°C° 0.1 mm 1 mps 664 mmHg 83%
    21:00 +23°C° 0 mm 1 mps 664 mmHg 84%
    22:00 +21°C° 0 mm 2 mps 664 mmHg 85%
    23:00 +21°C° 0 mm 2 mps 664 mmHg 85%

    9 April, Thursday

    Time Temperature Precipitation Wind Pressure Humidity
    00:00 +21°C° 0 mm 2 mps 664 mmHg 85%
    01:00 +20°C° 0 mm 2 mps 663 mmHg 85%
    02:00 +20°C° 0 mm 2 mps 663 mmHg 85%
    03:00 +20°C° 0 mm 2 mps 663 mmHg 85%
    04:00 +19°C° 0 mm 2 mps 663 mmHg 85%
    05:00 +19°C° 0 mm 2 mps 663 mmHg 85%
    06:00 +21°C° 0 mm 2 mps 664 mmHg 79%
    07:00 +24°C° 0 mm 1 mps 665 mmHg 73%
    08:00 +26°C° 0 mm 1 mps 666 mmHg 67%
    09:00 +28°C° 0 mm 1 mps 666 mmHg 61%
    10:00 +29°C° 0 mm 2 mps 666 mmHg 54%
    11:00 +31°C° 0 mm 2 mps 666 mmHg 47%
    12:00 +32°C° 0 mm 2 mps 665 mmHg 46%
    13:00 +32°C° 0 mm 2 mps 664 mmHg 45%
    14:00 +33°C° 0 mm 3 mps 664 mmHg 44%
    15:00 +30°C° 0.3 mm 3 mps 663 mmHg 53%
    16:00 +29°C° 0.3 mm 3 mps 663 mmHg 63%
    17:00 +27°C° 0.3 mm 3 mps 663 mmHg 72%
    18:00 +25°C° 0.1 mm 2 mps 663 mmHg 76%
    19:00 +24°C° 0.1 mm 2 mps 664 mmHg 81%
    20:00 +23°C° 0.1 mm 1 mps 664 mmHg 85%
    21:00 +21°C° 0 mm 2 mps 664 mmHg 85%
    22:00 +21°C° 0 mm 2 mps 664 mmHg 86%
    23:00 +20°C° 0 mm 2 mps 663 mmHg 87%
    Show more